Simultaneous Nadir Overpasses (SNOs) Predictions

Prediction of SNOs between FY3D and TERRA Satellite Orbit:

Table of predicted SNOs for the next 14.0 days since TLE Epoch: 7/4/2020
Index Date (FY3D) Time (FY3D) Lat,Lon (FY3D) SZA (FY3D ) Date (TERRA) Time (TERRA) Lat,Lon (TERRA) SZA (TERRA ) Distance(km) Time Diff (sec)
1 07/06/2020 17:26:47 -69.12, 97.32 133.56 07/06/2020 17:27:58 -69.08, 97.66 133.60 13.98 71
2 07/06/2020 18:17:28 68.88, -95.04 46.20 07/06/2020 18:17:27 68.86, -94.98 46.18 3.30 1
3 07/06/2020 19:08:09 -68.74, 72.46 133.94 07/06/2020 19:06:57 -68.76, 72.52 133.92 2.86 72
4 07/09/2020 09:43:14 -69.32,-147.05 133.04 07/09/2020 09:44:25 -69.18,-146.33 133.20 32.09 71
5 07/09/2020 10:33:51 68.87, 20.88 46.51 07/09/2020 10:33:56 68.85, 20.88 46.48 3.15 5
6 07/09/2020 11:24:32 -68.73,-171.61 133.64 07/09/2020 11:23:26 -68.74,-171.61 133.62 1.65 66
7 07/12/2020 01:59:40 -69.47, -31.35 132.53 07/12/2020 02:00:50 -69.39, -30.18 132.64 46.73 70
8 07/12/2020 02:50:14 68.87, 136.80 46.86 07/12/2020 02:50:24 68.88, 136.81 46.87 1.53 10
9 07/12/2020 03:40:55 -68.72, -55.68 133.29 07/12/2020 03:39:55 -68.73, -55.75 133.28 2.82 60
10 07/14/2020 18:16:06 -69.67, 84.26 131.92 07/14/2020 18:17:15 -69.53, 85.90 132.09 65.31 69
11 07/14/2020 19:06:36 68.87,-107.29 47.26 07/14/2020 19:06:52 68.86,-107.33 47.25 2.08 16
12 07/14/2020 19:57:18 -68.77, 60.17 132.84 07/14/2020 19:56:22 -68.76, 60.18 132.84 0.51 56
13 07/17/2020 10:32:33 -69.88,-160.13 131.26 07/17/2020 10:33:40 -69.73,-157.95 131.45 85.42 67
14 07/17/2020 11:22:59 68.87, 8.63 47.71 07/17/2020 11:23:20 68.89, 8.59 47.73 3.08 21
15 07/17/2020 12:13:41 -68.76, 176.09 132.40 07/17/2020 12:12:51 -68.74, 176.03 132.42 3.16 50
